NORSAT 2

Satellite information

Favourite Embed

Satellite Type and Status

PAYLOADIN ORBIT

Key statistics

Satellite NORSAT 2 at a glance.

Uptime

3026

Days in orbit

Revolutions

≈ 15.2

Per day

Orbit

SSO

Sun Synchronous Orbit

Inclination

97.4

Latest

Satellite identification and parameters

Extended collection of information and parameters for NORSAT 2.

Object identification

Identified? True

Debris? False

Object name: NORSAT 2

International designator: 2017-042D

Object number (NORAD): 42828

Object ID (CCSDS): 42828

Country: NORWAY (NOR)

Current information (Y/N): Y

RCS size: MEDIUM

Orbital parameters

Period: 95.015 minutes

Inclination: 97.3914 deg

SMA: 6897.454 km

Apoapsis: 527.107 km

Periapsis: 511.53 km

RAAN: 112.3467 deg

Eccentricy: 0.00112918

Argument of periapsis: 146.0974 deg

Mean anomaly: 214.0982 deg

Mean motion: 15.15547535 rev/day

Mean motion (dot): 0.00014639 rev/day2

B* drag term: 0.00077331004 1/REarth

Two-line elements (TLE)

Creation date: Oct. 26, 2025, 2:54 a.m.

Reference frame: TEME

Reference center: EARTH

Epoch: Oct. 25, 2025, 11:25 p.m. UTC

TLE line 0: 0 NORSAT 2

TLE line 1: 1 42828U 17042D 25298.97630954 .00014639 00000-0 77331-3 0 9994

TLE line 2: 2 42828 97.3914 112.3467 0011292 146.0974 214.0982 15.15547535452186

Live tracking on map

Real-time ground track for satellite NORSAT 2.

In-orbit conjunctions

There are no conjunctions computed for NORSAT 2, at the moment. Check back to stay up to date, as we update our databases every day.

Go to all conjunctions

Associated space launch

Kanopus-V-IK is a small Russian remote sensing satellite for monitoring wildfires. Weighing about 473 kg, it is intended for 5 years of operation in a 510 km sun-synchronous orbit.

NORSAT 2 was lifted into orbit during the mission ‘Soyuz-2.1a/Fregat | Kanopus-V-IK’, on board a Soyuz 2.1a/Fregat-M space rocket.

The launch took place on July 14, 2017, 6:36 a.m. from 31/6.

For more information about the launch, click the button.

Launch to space Soyuz-2.1a/Fregat | Kanopus-V-IK
Soyuz-2.1a/Fregat | Kanopus-V-IK

Agency: N/A

Status: Launch was a Partial Failure

Launch date: July 14, 2017, 6:36 a.m. UTC

Rocket: Soyuz 2.1a/Fregat-M

Launch pad: 31/6

Location: Baikonur Cosmodrome, Republic of Kazakhstan

...

Latest news about this satellite

There are no fresh news available about this satellite. Check back as we update our databases every day.


Newsletter sign-up

Weekly statistics, charts and insights to help you stay on top of the space industry.